THORAD DELTA 1 DEB, 9984

Orbit data source: Space-Track

THORAD DELTA 1 DEB, 9984 is space debris in SSO originally from a launch on Fri, 15 Nov 1974 UTC launched from the Air Force Western Test Range (AFWTR). Debris objects in space refer to the collection of defunct objects orbiting the Earth. Examples of debris include non-operational satellites, rocket bodies, and fragments generated from explosions, collisions, or faulty payload assembly.

Loading next visibility...
Identifier
9984, 1974-089EB
Orbit
SSO
Country
Flag of USUS
Related business
Manufacturer
Unknown
Mission
Spacecraft
Bus & Motor
Unknown
Mass
Unknown
Launch date (UTC)
1974-11-15 (51 years ago)
Launch vehicle
Unknown
Launch site
Air Force Western Test Range (AFWTR)
Object type
Payload
Rocket body
Debris
Shape & HBR
Unknown shape, 0.1 m
Radar Cross Section
Small (<0.1 m²)

Expand to show TLE details & history
Last TLE update: 16 hours ago

TLE from 16 hours ago
0 THORAD DELTA 1 DEB
1  9984U 74089EB  25353.43612167 -.00000033  00000-0  98925-4 0  9990
2  9984 102.3258 343.4365 0095043 122.0640  34.6882 12.40452344315017
Epoch: 2025-12-19T10:28Z
TLE epoch observation values (Epoch: 2025-12-19T10:28:00.912Z)
Latitude
22.08853°
Longitude
-76.78233°
Altitude
1,445.657 km
Speed
7.169 km/s
True Right ascension
11h 13m 59s
True Declination
21° 58' 46"
Sunlit
Object was in daylight at epoch
Visualization orbit readout
Latitude
Unknown
Longitude
Unknown
Altitude
Unknown
Speed
Unknown
Apparent Right ascension
Unknown
Apparent Declination
Unknown
Sunlit
N/A
Visualization observer readout
Local Sidereal Time
01:22:48
Azimuth
Unknown
Elevation
Unknown
Doppler factor
Unknown
Orbital elements
Apogee altitude
1,577.177 km
Perigee altitude
1,427.382 km
Semi-major axis
7,880.417 km
Eccentricity
0.0095
Inclination
102.3258°
RAAN
343.4365°
Arg. of periapsis
122.064°
True anomaly
35.31412°
Mean anomaly
34.6882°
Eccentric anomaly
35.00055°
Mean motion
3.10255 °/min
Orbital period
116.03 mins
BSTAR
0.000098925
Loading maneuver chart data...
Computing Atmospheric mass density...

Documentation

Showing up to 5 results
|